Погода в Верколе

Россия / Архангельская область     63°47′53″N   45°08′03″E
темп.,
°C
ветер,
м/с
пор.,
м/с
влажн.,
%
обл.,
%
осадки,
мм/ч
давл.,
гПа
погр.,
м
8 мая, сб
сб800:00+6юз2791100 0.3 1007231
03:00+6зюз3792100 0.3 1008545
06:00+7з278971 1.7 1010816
09:00+9зюз466793 1.8 10131074
12:00+11юз254872 0.1 10131698
15:00+13ю364291 0.1 10142139
18:00+13юв484452 0.0 10131766
21:00+9юв3865100 0.0 1013186
9 мая, вс
вс900:00+9юв41367100 0.0 1012471
03:00+9юв51462100 0.1 1010659
06:00+10юв51460100 0.0 1008906
09:00+9юв51380100 0.4 10061240
12:00+9ююв51285100 0.3 10061017
15:00+10ююв31093100 3.2 1006891
18:00+10ююз4893100 1.6 1007688
21:00+6зсз4894100 4.8 1010600
10 мая, пн
пн1000:00+4зсз4894100 2.6 1012646
03:00+3зсз31086100 3.4 1015624
06:00+4з398210 0.0 1017425
09:00+8з47535 0.0 10191325
12:00+12зюз473411 0.0 10202300
15:00+12зюз5945100 0.1 10212072
18:00+11зюз485496 0.4 10221335
21:00+7ююз277698 0.6 1024129
11 мая, вт
вт1100:00+6ю298298 0.0 1023192
03:00+7ююз31079100 0.0 1023403
06:00+7ююз31093100 0.6 1023559
09:00+8юз3995100 1.4 1023543
12:00+10юз31095100 0.1 1023545
15:00+17зюз4969100 0.2 10221286
18:00+18зюз5116696 0.3 10221314
21:00+14юз398228 0.3 1023194
12 мая, ср
ср1200:00+12юз31085100 0.0 1024267
03:00+12юз3108468 0.0 1024310
06:00+14зюз31175100 0.0 1025567
09:00+19зюз5853100 0.0 1025995
12:00+22з574246 0.0 10251629
15:00+23зюз573661 0.0 10241965
18:00+22зюз47425 0.0 10241499
21:00+16юз24660 0.0 102455